Hourly Weather Seoul

Today, 15 June, Tuesday

Time Temperature Precipitation Wind Pressure Humidity
00:00 +25°C° 0 mm 1 mps 747 mmHg 65%
01:00 +22°C° 0 mm 0 mps 747 mmHg 66%
02:00 +22°C° 0 mm 0 mps 747 mmHg 66%
03:00 +22°C° 0 mm 0 mps 747 mmHg 67%
04:00 +22°C° 0 mm 0 mps 747 mmHg 69%
05:00 +22°C° 0 mm 0 mps 747 mmHg 70%
06:00 +24°C° 0.2 mm 1 mps 747 mmHg 71%
07:00 +24°C° 0.2 mm 1 mps 747 mmHg 73%
08:00 +24°C° 0 mm 1 mps 747 mmHg 73%
09:00 +24°C° 0.5 mm 1 mps 747 mmHg 75%
10:00 +24°C° 0.5 mm 1 mps 747 mmHg 76%
11:00 +24°C° 0.5 mm 1 mps 747 mmHg 78%
12:00 +24°C° 0.6 mm 1 mps 747 mmHg 78%
13:00 +24°C° 0.6 mm 1 mps 747 mmHg 78%
14:00 +24°C° 0 mm 1 mps 747 mmHg 78%
15:00 +24°C° 0.1 mm 1 mps 747 mmHg 77%
16:00 +24°C° 0.1 mm 2 mps 747 mmHg 76%
17:00 +24°C° 0.1 mm 2 mps 746 mmHg 76%
18:00 +23°C° 0 mm 2 mps 747 mmHg 76%
19:00 +23°C° 0 mm 2 mps 747 mmHg 77%
20:00 +22°C° 0 mm 1 mps 747 mmHg 77%
21:00 +22°C° 0 mm 1 mps 747 mmHg 79%
22:00 +21°C° 0 mm 1 mps 747 mmHg 80%
23:00 +21°C° 0 mm 1 mps 748 mmHg 82%

Tomorrow, 16 June, Wednesday

Time Temperature Precipitation Wind Pressure Humidity
00:00 +21°C° 0 mm 1 mps 747 mmHg 83%
01:00 +19°C° 0 mm 2 mps 747 mmHg 84%
02:00 +19°C° 0 mm 2 mps 747 mmHg 85%
03:00 +19°C° 0 mm 2 mps 747 mmHg 85%
04:00 +19°C° 0 mm 2 mps 748 mmHg 85%
05:00 +19°C° 0 mm 2 mps 748 mmHg 84%
06:00 +21°C° 0 mm 3 mps 748 mmHg 76%
07:00 +22°C° 0 mm 4 mps 748 mmHg 69%
08:00 +25°C° 0 mm 4 mps 748 mmHg 61%
09:00 +26°C° 0 mm 5 mps 748 mmHg 56%
10:00 +28°C° 0 mm 5 mps 748 mmHg 51%
11:00 +29°C° 0 mm 5 mps 748 mmHg 45%
12:00 +30°C° 0 mm 5 mps 748 mmHg 44%
13:00 +30°C° 0 mm 5 mps 748 mmHg 43%
14:00 +30°C° 0 mm 5 mps 748 mmHg 42%
15:00 +29°C° 0 mm 5 mps 748 mmHg 45%
16:00 +28°C° 0 mm 5 mps 748 mmHg 48%
17:00 +27°C° 0 mm 5 mps 748 mmHg 51%
18:00 +26°C° 0 mm 4 mps 748 mmHg 56%
19:00 +25°C° 0 mm 4 mps 748 mmHg 61%
20:00 +22°C° 0 mm 3 mps 749 mmHg 66%
21:00 +22°C° 0 mm 3 mps 749 mmHg 68%
22:00 +21°C° 0 mm 2 mps 749 mmHg 69%
23:00 +21°C° 0 mm 2 mps 749 mmHg 70%

Day after tomorrow, 17 June, Thursday

Time Temperature Precipitation Wind Pressure Humidity
00:00 +20°C° 0 mm 2 mps 749 mmHg 72%
01:00 +21°C° 0 mm 1 mps 749 mmHg 73%
02:00 +21°C° 0 mm 1 mps 749 mmHg 75%
03:00 +21°C° 0 mm 1 mps 749 mmHg 75%
04:00 +19°C° 0 mm 2 mps 749 mmHg 75%
05:00 +19°C° 0 mm 2 mps 748 mmHg 75%
06:00 +20°C° 0 mm 2 mps 749 mmHg 70%
07:00 +21°C° 0 mm 2 mps 749 mmHg 66%
08:00 +23°C° 0 mm 2 mps 749 mmHg 62%
09:00 +23°C° 0 mm 1 mps 749 mmHg 62%
10:00 +23°C° 0 mm 1 mps 748 mmHg 62%
11:00 +23°C° 0 mm 1 mps 748 mmHg 62%
12:00 +23°C° 0 mm 1 mps 748 mmHg 61%
13:00 +23°C° 0 mm 1 mps 748 mmHg 61%
14:00 +24°C° 0 mm 1 mps 748 mmHg 60%
15:00 +23°C° 0 mm 1 mps 748 mmHg 63%
16:00 +23°C° 0 mm 1 mps 748 mmHg 65%
17:00 +23°C° 0 mm 1 mps 747 mmHg 67%
18:00 +23°C° 0 mm 1 mps 748 mmHg 69%
19:00 +22°C° 0 mm 1 mps 748 mmHg 71%
20:00 +20°C° 0 mm 0 mps 748 mmHg 74%
21:00 +22°C° 0 mm 1 mps 748 mmHg 75%
22:00 +22°C° 0 mm 1 mps 747 mmHg 77%
23:00 +22°C° 0 mm 1 mps 747 mmHg 79%

18 June, Friday

Time Temperature Precipitation Wind Pressure Humidity
00:00 +21°C° 0 mm 1 mps 747 mmHg 80%
01:00 +21°C° 0 mm 1 mps 746 mmHg 82%
02:00 +21°C° 0 mm 1 mps 745 mmHg 84%
03:00 +21°C° 0.1 mm 1 mps 745 mmHg 85%
04:00 +21°C° 0.1 mm 1 mps 745 mmHg 86%
05:00 +21°C° 0.1 mm 1 mps 745 mmHg 87%
06:00 +21°C° 0.6 mm 1 mps 745 mmHg 89%
07:00 +21°C° 0.6 mm 1 mps 745 mmHg 91%
08:00 +21°C° 0.6 mm 1 mps 745 mmHg 93%
09:00 +21°C° 0.7 mm 1 mps 745 mmHg 93%
10:00 +21°C° 0.7 mm 1 mps 744 mmHg 93%
11:00 +20°C° 0.7 mm 2 mps 744 mmHg 93%
12:00 +20°C° 0.1 mm 2 mps 744 mmHg 93%
13:00 +21°C° 0.1 mm 1 mps 744 mmHg 93%
14:00 +21°C° 0.1 mm 1 mps 743 mmHg 94%
15:00 +22°C° 0 mm 1 mps 743 mmHg 91%
16:00 +22°C° 0 mm 1 mps 743 mmHg 88%
17:00 +23°C° 0 mm 1 mps 743 mmHg 86%
18:00 +22°C° 0 mm 1 mps 744 mmHg 88%
19:00 +22°C° 0 mm 1 mps 744 mmHg 90%
20:00 +21°C° 0 mm 1 mps 744 mmHg 92%
21:00 +21°C° 0 mm 1 mps 744 mmHg 92%
22:00 +21°C° 0 mm 1 mps 744 mmHg 93%
23:00 +20°C° 0 mm 1 mps 744 mmHg 93%

19 June, Saturday

Time Temperature Precipitation Wind Pressure Humidity
00:00 +20°C° 0 mm 1 mps 744 mmHg 94%
01:00 +17°C° 0 mm 0 mps 744 mmHg 95%
02:00 +17°C° 0 mm 0 mps 744 mmHg 95%
03:00 +17°C° 0 mm 0 mps 744 mmHg 95%
04:00 +17°C° 0 mm 0 mps 744 mmHg 94%
05:00 +17°C° 0 mm 0 mps 745 mmHg 94%
06:00 +18°C° 0 mm 0 mps 745 mmHg 84%
07:00 +20°C° 0 mm 0 mps 745 mmHg 75%
08:00 +22°C° 0 mm 0 mps 745 mmHg 66%
09:00 +25°C° 0 mm 1 mps 745 mmHg 57%
10:00 +27°C° 0 mm 1 mps 745 mmHg 48%
11:00 +28°C° 0 mm 2 mps 745 mmHg 39%
12:00 +29°C° 0 mm 3 mps 744 mmHg 37%
13:00 +29°C° 0 mm 4 mps 744 mmHg 34%
14:00 +29°C° 0 mm 4 mps 744 mmHg 31%
15:00 +28°C° 0 mm 4 mps 744 mmHg 33%
16:00 +27°C° 0 mm 4 mps 744 mmHg 34%
17:00 +26°C° 0 mm 3 mps 744 mmHg 36%
18:00 +25°C° 0 mm 3 mps 744 mmHg 41%
19:00 +24°C° 0 mm 2 mps 744 mmHg 46%
20:00 +23°C° 0 mm 1 mps 745 mmHg 51%
21:00 +22°C° 0 mm 1 mps 745 mmHg 54%
22:00 +21°C° 0 mm 1 mps 745 mmHg 57%
23:00 +21°C° 0 mm 1 mps 745 mmHg 61%

20 June, Sunday

Time Temperature Precipitation Wind Pressure Humidity
00:00 +21°C° 0 mm 1 mps 745 mmHg 63%
01:00 +20°C° 0 mm 1 mps 745 mmHg 64%
02:00 +20°C° 0 mm 1 mps 745 mmHg 66%
03:00 +20°C° 0 mm 1 mps 745 mmHg 66%
04:00 +19°C° 0 mm 1 mps 745 mmHg 67%
05:00 +19°C° 0 mm 1 mps 745 mmHg 67%
06:00 +21°C° 0 mm 1 mps 745 mmHg 62%
07:00 +23°C° 0 mm 1 mps 746 mmHg 57%
08:00 +25°C° 0 mm 1 mps 746 mmHg 51%
09:00 +26°C° 0 mm 1 mps 746 mmHg 46%
10:00 +28°C° 0 mm 1 mps 745 mmHg 41%
11:00 +30°C° 0 mm 1 mps 745 mmHg 36%
12:00 +30°C° 0 mm 2 mps 745 mmHg 35%
13:00 +31°C° 0 mm 3 mps 744 mmHg 34%
14:00 +32°C° 0 mm 4 mps 744 mmHg 33%
15:00 +30°C° 0 mm 4 mps 744 mmHg 36%
16:00 +29°C° 0 mm 3 mps 744 mmHg 39%
17:00 +28°C° 0 mm 3 mps 744 mmHg 41%
18:00 +27°C° 0.2 mm 2 mps 745 mmHg 50%
19:00 +25°C° 0.2 mm 2 mps 745 mmHg 58%
20:00 +23°C° 0.2 mm 1 mps 745 mmHg 67%
21:00 +23°C° 0 mm 1 mps 746 mmHg 69%
22:00 +21°C° 0 mm 0 mps 746 mmHg 71%
23:00 +21°C° 0 mm 0 mps 746 mmHg 73%
Show more

We Need Your Consent

Meteoprog and our Service Providers may store and access personal data such as cookies, device identifiers or other similar technologies on your device and process such data to personalise content and ads, as well as provide social media features and to analyse the traffic.

  • Store and/or access information on your device

    Cookies, device identifiers or other information can be stored or accessed on your device for the purposes indicated above.

  • Personalised ads and content, ad and content measurement, audience insights, and products development

    Ads and content can be personalised based on a profile. More data can be added to better personalise ads and content. Ad and content performance can be measured. Insights about the audience who saw the ads and content can be derived. Such data can be used to develop or improve user’s experience, systems and software.

By clicking ‘I Agree’ you will allow the use of indicated cookies, device identifiers, web beacons or other similar technologies. Your settings can be changed in the browser on your device.

For certain purposes, legitimate interests may be relied on, rather than consent. You can read more about this in our Privacy and Cookie Policy.